User: anonymous   Login
Location: Bartlow
(52.0833°N, 0.3167°E)
Time: 05:38:22
(UTC+00:00)
Language:

Thor Agena Rocket - Orbit

View from above orbital plane
View from above orbital plane
View from above satellite
View from above satellite

Ground track
Ground track

The orbit data is extracted from the following two-line orbital elements,

1 00733U 64002A   24060.48976189  .00000401  00000-0  16297-3 0  9992
2 00733  99.0614  24.8637 0032375 250.1106 109.6587 14.33079065132380
Epoch (UTC): 29 February 2024 11:45:15
Eccentricity: 0.0032375
inclination: 99.0614°
perigee height: 758 km
apogee height: 804 km
right ascension of ascending node: 24.8637°
argument of perigee: 250.1106°
revolutions per day: 14.33079065
mean anomaly at epoch: 109.6587°
orbit number at epoch: 13238

The dashed part of the orbit path shows where the satellite is in the earth's shadow,  

DLR